This demonstration page uses our WeatherBlox Daily Observations layout. Learn more.

39.92423, -83.80882

Hourly Observations for September 18, 2018

Temp ( °F °C ) Dew Point ( °F °C ) Humidity (%) Winds ( mph kmh ) Pressure ( in mb ) Visibility ( mi km ) Precip ( " mm )
12:56 am 00:56 Clear with Mist and Fog 67 19.4 67 19.4 100 100 Calm 29.93 1014 6 9.65604 0 0
1:12 am 01:12 Clear with Mist and Fog 66 19 66 19 100 100 W 3 6 29.91 1013 2.5 4.02335 0 0
1:19 am 01:19 Clear 66 19 66 19 100 100 Calm 29.91 1013 8 12.87472 0 0
1:56 am 01:56 Clear 66 18.9 66 18.9 100 100 Calm 29.93 1014 10 16.0934 0 0
2:17 am 02:17 Clear with Mist and Fog 66 19 66 19 100 100 W 3 6 29.91 1013 1.75 2.816345 0 0
2:39 am 02:39 Clear with Mist and Fog 66 19 66 19 100 100 Calm 29.91 1013 0.75 1.207005 0 0
2:54 am 02:54 Clear with Fog 66 19 66 19 100 100 W 3 6 29.91 1013 0.25 0.402335 0 0
2:55 am 02:55 Clear with Fog 66 18.9 66 18.9 100 100 W 3 6 29.93 1014 0.25 0.402335 0 0
3:05 am 03:05 Mostly Cloudy with Fog 64 18 64 18 100 100 WSW 3 6 29.91 1013 0.25 0.402335 0 0
3:29 am 03:29 Mostly Cloudy with Mist and Fog 64 18 64 18 100 100 SW 3 6 29.91 1013 0.75 1.207005 0 0
3:41 am 03:41 Clear with Fog 64 18 64 18 100 100 SW 5 7 29.91 1013 0.5 0.80467 0 0
3:50 am 03:50 Mostly Cloudy with Fog 63 17 63 17 100 100 WSW 5 7 29.91 1013 0.25 0.402335 0 0
3:56 am 03:56 Mostly Cloudy with Fog 63 17.2 63 17.2 100 100 WSW 6 9 29.93 1014 0.25 0.402335 0 0
4:19 am 04:19 Mostly Cloudy with Mist and Fog 64 18 64 18 100 100 SW 5 7 29.91 1013 0.75 1.207005 0 0
4:22 am 04:22 Mostly Clear with Mist and Fog 64 18 64 18 100 100 SW 5 7 29.91 1013 1.25 2.011675 0 0
4:26 am 04:26 Mostly Clear with Mist and Fog 64 18 64 18 100 100 SW 5 7 29.91 1013 3 4.82802 0 0
4:36 am 04:36 Clear with Mist and Fog 64 18 64 18 100 100 WSW 6 9 29.91 1013 1.75 2.816345 0 0
4:52 am 04:52 Clear with Mist and Fog 64 18 64 18 100 100 SW 5 7 29.91 1013 2.5 4.02335 0 0
4:56 am 04:56 Clear with Mist and Fog 64 17.8 64 17.8 100 100 SW 5 7 29.93 1013 2.5 4.02335 0 0
5:11 am 05:11 Clear with Mist and Fog 64 18 64 18 100 100 SW 3 6 29.91 1013 1 1.60934 0 0
5:19 am 05:19 Clear with Mist and Fog 64 18 64 18 100 100 Calm 29.91 1013 0.75 1.207005 0 0
5:36 am 05:36 Clear with Fog 64 18 64 18 100 100 WSW 5 7 29.91 1013 0.5 0.80467 0 0
5:51 am 05:51 Mostly Cloudy with Fog 64 18 64 18 100 100 WSW 3 6 29.91 1013 0.25 0.402335 0 0
5:56 am 05:56 Mostly Cloudy with Fog 64 17.8 64 17.8 100 100 Calm 29.94 1014 0.25 0.402335 0 0
6:16 am 06:16 Mostly Cloudy with Fog 63 17 63 17 100 100 Calm 29.91 1013 0.5 0.80467 0 0
6:36 am 06:36 Mostly Cloudy with Fog 63 17 63 17 100 100 Calm 29.97 1015 0.25 0.402335 0 0
6:42 am 06:42 Mostly Cloudy with Mist and Fog 63 17 63 17 100 100 Calm 29.97 1015 0.75 1.207005 0 0
6:48 am 06:48 Cloudy with Fog 63 17 63 17 100 100 Calm 29.97 1015 0.25 0.402335 0 0
6:56 am 06:56 Cloudy with Fog 62 16.7 62 16.7 100 100 Calm 29.96 1014 0.25 0.402335 0 0
7:56 am 07:56 Mostly Cloudy with Fog 63 17.2 63 17.2 100 100 Calm 29.97 1015 0.5 0.80467 0 0.0254
8:03 am 08:03 Mostly Cloudy with Light Rain 64 18 64 18 100 100 Calm 29.94 1014 0.25 0.402335 0 0.0254
8:07 am 08:07 Sunny with Light Rain 64 18 64 18 100 100 Calm 29.94 1014 0.5 0.80467 0 0.0254
8:11 am 08:11 Sunny with Mist and Fog 66 19 66 19 100 100 Calm 29.94 1014 1 1.60934 0 0.0254
8:14 am 08:14 Sunny with Mist and Fog 66 19 66 19 100 100 Calm 29.94 1014 2 3.21868 0 0.0254
8:56 am 08:56 Mostly Cloudy 69 20.6 69 20.6 100 100 Calm 29.97 1015 10 16.0934 0 0.0254
9:56 am 09:56 Sunny 74 23.3 70 21.1 88 88 W 3 6 29.97 1015 10 16.0934 0 0
10:56 am 10:56 Sunny 82 27.8 69 20.6 65 65 NW 7 11 29.97 1015 10 16.0934 0 0
11:56 am 11:56 Sunny 84 28.9 65 18.3 53 53 NNW 6 9 29.96 1014 10 16.0934 0 0
12:56 pm 12:56 Mostly Sunny 85 29.4 66 18.9 53 53 WSW 8 13 29.93 1014 10 16.0934 0 0
1:56 pm 13:56 Partly Cloudy 88 31.1 65 18.3 46 46 NW 7 11 29.93 1014 10 16.0934 0 0
2:56 pm 14:56 Partly Cloudy 88 31.1 66 18.9 48 48 W 8 13 29.91 1013 10 16.0934 0 0
3:56 pm 15:56 Mostly Cloudy 90 32.2 66 18.9 45 45 W 6 9 29.9 1013 10 16.0934 0 0
4:56 pm 16:56 Mostly Sunny 89 31.7 64 17.8 43 43 VRB 7 11 29.89 1012 10 16.0934 0 0
5:56 pm 17:56 Mostly Sunny 84 28.9 64 17.8 51 51 N 6 9 29.9 1013 10 16.0934 0 0
6:56 pm 18:56 Partly Cloudy 83 28.3 64 17.8 53 53 Calm 29.9 1013 10 16.0934 0 0
7:56 pm 19:56 Hazy 74 23.3 66 18.9 76 76 Calm 29.91 1013 5 8.0467 0 0
8:56 pm 20:56 Mostly Cloudy 73 22.8 67 19.4 81 81 ESE 3 6 29.92 1013 10 16.0934 0 0
9:56 pm 21:56 Mostly Clear 72 22.2 67 19.4 84 84 Calm 29.93 1014 10 16.0934 0 0
10:56 pm 22:56 Clear 68 20 66 18.9 93 93 Calm 29.93 1014 10 16.0934 0 0

Powered by AerisWeather